When you browse on this site, cookies collect data to enhance your experience and personalize the content and advertising you see.
Visit our Privacy Policy to learn more. By continuing to use the site, you agree to this use of cookies and data.
  • In Romania
  • List of Countries
  • For 7 days
  • Water Temperature
  • Satellite Maps
  • Weather Map
  • Weather Widgets
  • user-avatar
    Login

    Hourly Weather La Massana

    Today, 16 June, Sunday

    Time Temperature Precipitation Wind Pressure Humidity
    00:00 +6°C° 0 mm 1 mps 612 mmHg 91%
    01:00 +5°C° 0 mm 1 mps 612 mmHg 90%
    02:00 +5°C° 0 mm 1 mps 612 mmHg 90%
    03:00 +5°C° 0 mm 1 mps 611 mmHg 89%
    04:00 +5°C° 0 mm 0 mps 612 mmHg 84%
    05:00 +7°C° 0 mm 0 mps 613 mmHg 78%
    06:00 +8°C° 0 mm 0 mps 614 mmHg 71%
    07:00 +11°C° 0 mm 1 mps 614 mmHg 63%
    08:00 +13°C° 0 mm 1 mps 615 mmHg 54%
    09:00 +15°C° 0 mm 1 mps 616 mmHg 46%
    10:00 +16°C° 0 mm 2 mps 616 mmHg 44%
    11:00 +17°C° 0 mm 2 mps 616 mmHg 42%
    12:00 +18°C° 0 mm 2 mps 617 mmHg 40%
    13:00 +18°C° 0 mm 2 mps 616 mmHg 41%
    14:00 +18°C° 0 mm 2 mps 616 mmHg 42%
    15:00 +18°C° 0 mm 2 mps 615 mmHg 44%
    16:00 +17°C° 0 mm 2 mps 615 mmHg 50%
    17:00 +16°C° 0 mm 1 mps 614 mmHg 56%
    18:00 +15°C° 0 mm 1 mps 614 mmHg 63%
    19:00 +13°C° 0 mm 1 mps 613 mmHg 69%
    20:00 +11°C° 0 mm 1 mps 613 mmHg 76%
    21:00 +10°C° 0 mm 1 mps 612 mmHg 82%
    22:00 +9°C° 0 mm 1 mps 612 mmHg 81%
    23:00 +9°C° 0 mm 1 mps 612 mmHg 79%

    Tomorrow, 17 June, Monday

    Time Temperature Precipitation Wind Pressure Humidity
    00:00 +9°C° 0 mm 1 mps 611 mmHg 78%
    01:00 +9°C° 0 mm 1 mps 611 mmHg 76%
    02:00 +9°C° 0 mm 1 mps 611 mmHg 75%
    03:00 +9°C° 0 mm 1 mps 611 mmHg 73%
    04:00 +10°C° 0 mm 1 mps 611 mmHg 71%
    05:00 +11°C° 0 mm 1 mps 612 mmHg 68%
    06:00 +12°C° 0 mm 1 mps 613 mmHg 66%
    07:00 +14°C° 0 mm 1 mps 614 mmHg 58%
    08:00 +16°C° 0 mm 1 mps 614 mmHg 50%
    09:00 +19°C° 0 mm 1 mps 615 mmHg 42%
    10:00 +20°C° 0 mm 1 mps 615 mmHg 41%
    11:00 +20°C° 0 mm 1 mps 615 mmHg 41%
    12:00 +19°C° 0 mm 2 mps 615 mmHg 40%
    13:00 +19°C° 0.3 mm 2 mps 615 mmHg 42%
    14:00 +20°C° 0.3 mm 1 mps 614 mmHg 44%
    15:00 +20°C° 0.3 mm 1 mps 614 mmHg 45%
    16:00 +19°C° 0.2 mm 1 mps 613 mmHg 51%
    17:00 +19°C° 0.2 mm 1 mps 613 mmHg 57%
    18:00 +18°C° 0.2 mm 1 mps 613 mmHg 62%
    19:00 +15°C° 0 mm 1 mps 612 mmHg 67%
    20:00 +13°C° 0 mm 1 mps 611 mmHg 72%
    21:00 +11°C° 0 mm 1 mps 611 mmHg 76%
    22:00 +11°C° 0 mm 1 mps 611 mmHg 76%
    23:00 +10°C° 0 mm 1 mps 611 mmHg 76%

    Day after tomorrow, 18 June, Tuesday

    Time Temperature Precipitation Wind Pressure Humidity
    00:00 +10°C° 0 mm 1 mps 610 mmHg 75%
    01:00 +10°C° 0 mm 1 mps 610 mmHg 74%
    02:00 +10°C° 0 mm 1 mps 610 mmHg 72%
    03:00 +9°C° 0 mm 2 mps 610 mmHg 71%
    04:00 +11°C° 0 mm 1 mps 610 mmHg 67%
    05:00 +13°C° 0 mm 1 mps 611 mmHg 63%
    06:00 +14°C° 0 mm 1 mps 611 mmHg 60%
    07:00 +16°C° 0 mm 2 mps 612 mmHg 52%
    08:00 +18°C° 0 mm 2 mps 613 mmHg 44%
    09:00 +20°C° 0 mm 2 mps 614 mmHg 36%
    10:00 +20°C° 0 mm 3 mps 614 mmHg 35%
    11:00 +21°C° 0 mm 3 mps 614 mmHg 34%
    12:00 +22°C° 0 mm 4 mps 614 mmHg 32%
    13:00 +22°C° 0 mm 4 mps 614 mmHg 33%
    14:00 +22°C° 0 mm 4 mps 613 mmHg 33%
    15:00 +21°C° 0 mm 4 mps 613 mmHg 33%
    16:00 +20°C° 0 mm 4 mps 612 mmHg 39%
    17:00 +19°C° 0 mm 3 mps 612 mmHg 44%
    18:00 +18°C° 0 mm 2 mps 611 mmHg 50%
    19:00 +16°C° 0 mm 2 mps 611 mmHg 55%
    20:00 +13°C° 0 mm 2 mps 610 mmHg 61%
    21:00 +11°C° 0 mm 1 mps 609 mmHg 67%
    22:00 +11°C° 0 mm 1 mps 609 mmHg 66%
    23:00 +10°C° 0 mm 2 mps 609 mmHg 66%

    19 June, Wednesday

    Time Temperature Precipitation Wind Pressure Humidity
    00:00 +9°C° 0 mm 2 mps 609 mmHg 65%
    01:00 +9°C° 0 mm 2 mps 609 mmHg 62%
    02:00 +9°C° 0 mm 2 mps 608 mmHg 59%
    03:00 +9°C° 0 mm 2 mps 608 mmHg 56%
    04:00 +11°C° 0 mm 1 mps 609 mmHg 55%
    05:00 +12°C° 0 mm 1 mps 610 mmHg 55%
    06:00 +13°C° 0 mm 1 mps 610 mmHg 54%
    07:00 +15°C° 0 mm 1 mps 611 mmHg 47%
    08:00 +17°C° 0 mm 2 mps 612 mmHg 40%
    09:00 +19°C° 0 mm 2 mps 613 mmHg 33%
    10:00 +19°C° 0 mm 3 mps 613 mmHg 32%
    11:00 +20°C° 0 mm 3 mps 613 mmHg 32%
    12:00 +20°C° 0 mm 3 mps 613 mmHg 31%
    13:00 +20°C° 0 mm 3 mps 613 mmHg 32%
    14:00 +20°C° 0 mm 3 mps 613 mmHg 33%
    15:00 +20°C° 0 mm 3 mps 612 mmHg 34%
    16:00 +19°C° 0 mm 2 mps 612 mmHg 42%
    17:00 +18°C° 0 mm 2 mps 611 mmHg 50%
    18:00 +17°C° 0 mm 2 mps 611 mmHg 58%
    19:00 +15°C° 0 mm 1 mps 610 mmHg 63%
    20:00 +13°C° 0 mm 1 mps 610 mmHg 68%
    21:00 +10°C° 0 mm 0 mps 609 mmHg 73%
    22:00 +11°C° 0 mm 1 mps 609 mmHg 71%
    23:00 +11°C° 0 mm 1 mps 609 mmHg 70%

    20 June, Thursday

    Time Temperature Precipitation Wind Pressure Humidity
    00:00 +10°C° 0 mm 1 mps 609 mmHg 68%
    01:00 +11°C° 0 mm 1 mps 609 mmHg 68%
    02:00 +11°C° 0 mm 1 mps 609 mmHg 67%
    03:00 +11°C° 0 mm 1 mps 609 mmHg 67%
    04:00 +11°C° 0 mm 1 mps 610 mmHg 68%
    05:00 +12°C° 0 mm 1 mps 610 mmHg 70%
    06:00 +11°C° 0 mm 0 mps 611 mmHg 72%
    07:00 +14°C° 0.1 mm 1 mps 611 mmHg 67%
    08:00 +15°C° 0.1 mm 2 mps 612 mmHg 62%
    09:00 +16°C° 0.1 mm 2 mps 612 mmHg 57%
    10:00 +17°C° 0.1 mm 3 mps 613 mmHg 54%
    11:00 +18°C° 0.1 mm 3 mps 613 mmHg 52%
    12:00 +18°C° 0.1 mm 4 mps 613 mmHg 49%
    13:00 +18°C° 0.1 mm 4 mps 613 mmHg 52%
    14:00 +17°C° 0.1 mm 4 mps 612 mmHg 55%
    15:00 +17°C° 0.1 mm 4 mps 612 mmHg 59%
    16:00 +16°C° 0.2 mm 3 mps 612 mmHg 66%
    17:00 +15°C° 0.2 mm 2 mps 611 mmHg 74%
    18:00 +14°C° 0.2 mm 1 mps 611 mmHg 81%
    19:00 +12°C° 0.3 mm 1 mps 611 mmHg 86%
    20:00 +11°C° 0.3 mm 1 mps 611 mmHg 91%
    21:00 +10°C° 0.3 mm 1 mps 610 mmHg 96%
    22:00 +10°C° 0.2 mm 1 mps 610 mmHg 95%
    23:00 +10°C° 0.2 mm 1 mps 610 mmHg 95%

    21 June, Friday

    Time Temperature Precipitation Wind Pressure Humidity
    00:00 +10°C° 0.2 mm 1 mps 610 mmHg 95%
    01:00 +10°C° 0.3 mm 1 mps 610 mmHg 95%
    02:00 +10°C° 0.3 mm 1 mps 610 mmHg 95%
    03:00 +9°C° 0.3 mm 0 mps 610 mmHg 95%
    04:00 +10°C° 0.7 mm 1 mps 610 mmHg 96%
    05:00 +10°C° 0.7 mm 1 mps 611 mmHg 96%
    06:00 +10°C° 0.7 mm 1 mps 611 mmHg 96%
    07:00 +11°C° 1.1 mm 1 mps 611 mmHg 94%
    08:00 +11°C° 1.1 mm 1 mps 612 mmHg 91%
    09:00 +11°C° 1.1 mm 1 mps 612 mmHg 89%
    10:00 +12°C° 1.1 mm 1 mps 612 mmHg 87%
    11:00 +13°C° 1.1 mm 2 mps 612 mmHg 86%
    12:00 +14°C° 1.1 mm 2 mps 613 mmHg 84%
    13:00 +13°C° 1.2 mm 2 mps 612 mmHg 85%
    14:00 +13°C° 1.2 mm 2 mps 612 mmHg 86%
    15:00 +13°C° 1.2 mm 1 mps 612 mmHg 86%
    16:00 +13°C° 0.8 mm 1 mps 612 mmHg 88%
    17:00 +12°C° 0.8 mm 1 mps 611 mmHg 89%
    18:00 +12°C° 0.8 mm 1 mps 611 mmHg 91%
    19:00 +11°C° 0.2 mm 1 mps 611 mmHg 92%
    20:00 +10°C° 0.2 mm 1 mps 611 mmHg 94%
    21:00 +9°C° 0.2 mm 1 mps 611 mmHg 95%
    22:00 +9°C° 0 mm 1 mps 611 mmHg 95%
    23:00 +7°C° 0 mm 0 mps 611 mmHg 94%
    Show more